Terug naar catalogus

THOR ABLESTAR DEB

ActiefLEO
NORAD 48817·DEBRIS·🇺🇸 United States

Gelanceerd Jun 29, 1961 vanaf Cape Canaveral Space Force Station

Loading…

Volgende Passages (komende 24 uur)

TLE

VersSource: Space-Track

Epoch: Sep 14, 2026, 03:14 UTC

1 48817U 61015MV  26257.13528810  .00000092  00000-0  12033-3 0  9994
2 48817  65.8409 139.7702 0206605 173.5837 186.7957 13.89989966649622

Volg THOR ABLESTAR DEB in realtime met AllMySat

Download on the App Store